• In Denmark
  • List of Countries
  • For 7 days
  • Water Temperature
  • Satellite Maps
  • Weather Map
  • Weather Widgets
  • user-avatar
    Login

    Hourly Weather Wiktoria

    Today, 25 September, Monday

    Time Temperature Precipitation Wind Pressure Humidity
    00:00 +8°C° 0 mm 4 mps 742 mmHg 80%
    01:00 +8°C° 0 mm 4 mps 742 mmHg 84%
    02:00 +8°C° 0 mm 3 mps 742 mmHg 88%
    03:00 +8°C° 0 mm 3 mps 743 mmHg 92%
    04:00 +7°C° 0 mm 2 mps 743 mmHg 95%
    05:00 +7°C° 0 mm 2 mps 743 mmHg 96%
    06:00 +7°C° 0 mm 2 mps 744 mmHg 96%
    07:00 +7°C° 0 mm 2 mps 744 mmHg 96%
    08:00 +9°C° 0 mm 3 mps 744 mmHg 89%
    09:00 +11°C° 0 mm 3 mps 745 mmHg 82%
    10:00 +13°C° 0 mm 4 mps 745 mmHg 75%
    11:00 +14°C° 0.4 mm 4 mps 745 mmHg 74%
    12:00 +14°C° 0.4 mm 5 mps 745 mmHg 72%
    13:00 +15°C° 0.4 mm 6 mps 745 mmHg 71%
    14:00 +15°C° 0.4 mm 5 mps 746 mmHg 72%
    15:00 +15°C° 0.4 mm 5 mps 746 mmHg 73%
    16:00 +15°C° 0.4 mm 5 mps 746 mmHg 74%
    17:00 +13°C° 0.1 mm 4 mps 746 mmHg 78%
    18:00 +11°C° 0.1 mm 3 mps 747 mmHg 83%
    19:00 +9°C° 0.1 mm 2 mps 747 mmHg 88%
    20:00 +8°C° 0 mm 2 mps 748 mmHg 89%
    21:00 +7°C° 0 mm 2 mps 748 mmHg 91%
    22:00 +6°C° 0 mm 2 mps 749 mmHg 92%
    23:00 +6°C° 0 mm 2 mps 749 mmHg 92%

    Tomorrow, 26 September, Tuesday

    Time Temperature Precipitation Wind Pressure Humidity
    00:00 +5°C° 0 mm 2 mps 750 mmHg 92%
    01:00 +5°C° 0 mm 2 mps 750 mmHg 92%
    02:00 +4°C° 0 mm 2 mps 750 mmHg 92%
    03:00 +5°C° 0 mm 1 mps 750 mmHg 92%
    04:00 +4°C° 0 mm 1 mps 750 mmHg 92%
    05:00 +4°C° 0 mm 1 mps 750 mmHg 92%
    06:00 +5°C° 0 mm 1 mps 751 mmHg 92%
    07:00 +5°C° 0 mm 1 mps 751 mmHg 92%
    08:00 +8°C° 0 mm 1 mps 751 mmHg 82%
    09:00 +10°C° 0 mm 1 mps 751 mmHg 72%
    10:00 +13°C° 0 mm 1 mps 751 mmHg 62%
    11:00 +14°C° 0 mm 1 mps 751 mmHg 58%
    12:00 +15°C° 0 mm 1 mps 750 mmHg 53%
    13:00 +18°C° 0 mm 1 mps 750 mmHg 49%
    14:00 +18°C° 0 mm 1 mps 750 mmHg 50%
    15:00 +18°C° 0 mm 1 mps 749 mmHg 51%
    16:00 +18°C° 0 mm 1 mps 749 mmHg 52%
    17:00 +15°C° 0 mm 1 mps 749 mmHg 58%
    18:00 +13°C° 0 mm 1 mps 749 mmHg 65%
    19:00 +9°C° 0 mm 2 mps 749 mmHg 72%
    20:00 +9°C° 0 mm 2 mps 749 mmHg 74%
    21:00 +8°C° 0 mm 2 mps 749 mmHg 75%
    22:00 +8°C° 0 mm 2 mps 750 mmHg 76%
    23:00 +7°C° 0 mm 3 mps 749 mmHg 75%

    Day after tomorrow, 27 September, Wednesday

    Time Temperature Precipitation Wind Pressure Humidity
    00:00 +7°C° 0 mm 3 mps 749 mmHg 74%
    01:00 +6°C° 0 mm 4 mps 748 mmHg 74%
    02:00 +7°C° 0 mm 4 mps 747 mmHg 67%
    03:00 +7°C° 0 mm 4 mps 746 mmHg 61%
    04:00 +8°C° 0 mm 5 mps 746 mmHg 55%
    05:00 +9°C° 0 mm 5 mps 745 mmHg 55%
    06:00 +9°C° 0 mm 5 mps 745 mmHg 56%
    07:00 +9°C° 0 mm 5 mps 744 mmHg 57%
    08:00 +10°C° 0.3 mm 5 mps 744 mmHg 65%
    09:00 +10°C° 0.3 mm 5 mps 744 mmHg 73%
    10:00 +11°C° 0.3 mm 4 mps 744 mmHg 82%
    11:00 +12°C° 0.2 mm 5 mps 743 mmHg 81%
    12:00 +13°C° 0.2 mm 6 mps 743 mmHg 80%
    13:00 +14°C° 0.2 mm 6 mps 742 mmHg 79%
    14:00 +15°C° 0.1 mm 6 mps 741 mmHg 79%
    15:00 +16°C° 0.1 mm 5 mps 741 mmHg 80%
    16:00 +16°C° 0.1 mm 5 mps 740 mmHg 80%
    17:00 +15°C° 0.6 mm 5 mps 740 mmHg 84%
    18:00 +15°C° 0.6 mm 4 mps 740 mmHg 89%
    19:00 +14°C° 0.6 mm 4 mps 740 mmHg 94%
    20:00 +13°C° 0.5 mm 4 mps 741 mmHg 93%
    21:00 +13°C° 0.5 mm 3 mps 741 mmHg 91%
    22:00 +13°C° 0.5 mm 3 mps 741 mmHg 90%
    23:00 +12°C° 0 mm 3 mps 741 mmHg 91%

    28 September, Thursday

    Time Temperature Precipitation Wind Pressure Humidity
    00:00 +11°C° 0 mm 3 mps 741 mmHg 91%
    01:00 +10°C° 0 mm 3 mps 741 mmHg 92%
    02:00 +9°C° 0 mm 3 mps 742 mmHg 92%
    03:00 +8°C° 0 mm 3 mps 742 mmHg 92%
    04:00 +7°C° 0 mm 2 mps 742 mmHg 93%
    05:00 +8°C° 0 mm 2 mps 743 mmHg 94%
    06:00 +8°C° 0 mm 2 mps 744 mmHg 95%
    07:00 +8°C° 0 mm 2 mps 745 mmHg 96%
    08:00 +10°C° 0 mm 2 mps 745 mmHg 89%
    09:00 +12°C° 0 mm 3 mps 746 mmHg 82%
    10:00 +14°C° 0 mm 3 mps 746 mmHg 75%
    11:00 +14°C° 0.1 mm 3 mps 746 mmHg 75%
    12:00 +15°C° 0.1 mm 4 mps 746 mmHg 75%
    13:00 +15°C° 0.1 mm 4 mps 746 mmHg 76%
    14:00 +15°C° 0.2 mm 4 mps 746 mmHg 78%
    15:00 +14°C° 0.2 mm 3 mps 746 mmHg 81%
    16:00 +14°C° 0.2 mm 3 mps 746 mmHg 84%
    17:00 +13°C° 0.1 mm 3 mps 746 mmHg 86%
    18:00 +11°C° 0.1 mm 3 mps 747 mmHg 88%
    19:00 +10°C° 0.1 mm 3 mps 748 mmHg 90%
    20:00 +9°C° 0 mm 3 mps 748 mmHg 90%
    21:00 +8°C° 0 mm 3 mps 749 mmHg 90%
    22:00 +8°C° 0 mm 3 mps 749 mmHg 90%
    23:00 +7°C° 0 mm 3 mps 749 mmHg 91%

    29 September, Friday

    Time Temperature Precipitation Wind Pressure Humidity
    00:00 +6°C° 0 mm 2 mps 749 mmHg 92%
    01:00 +5°C° 0 mm 2 mps 749 mmHg 93%
    02:00 +4°C° 0 mm 2 mps 749 mmHg 94%
    03:00 +4°C° 0 mm 2 mps 749 mmHg 94%
    04:00 +3°C° 0 mm 2 mps 749 mmHg 94%
    05:00 +4°C° 0 mm 2 mps 750 mmHg 94%
    06:00 +4°C° 0 mm 2 mps 750 mmHg 94%
    07:00 +5°C° 0 mm 2 mps 751 mmHg 94%
    08:00 +7°C° 0 mm 3 mps 751 mmHg 87%
    09:00 +9°C° 0 mm 3 mps 751 mmHg 81%
    10:00 +12°C° 0 mm 4 mps 751 mmHg 74%
    11:00 +13°C° 0.2 mm 5 mps 750 mmHg 72%
    12:00 +14°C° 0.2 mm 5 mps 750 mmHg 69%
    13:00 +15°C° 0.2 mm 5 mps 749 mmHg 67%
    14:00 +14°C° 0.3 mm 5 mps 749 mmHg 70%
    15:00 +14°C° 0.3 mm 5 mps 748 mmHg 74%
    16:00 +13°C° 0.3 mm 4 mps 748 mmHg 78%
    17:00 +12°C° 0.1 mm 4 mps 748 mmHg 80%
    18:00 +11°C° 0.1 mm 3 mps 749 mmHg 82%
    19:00 +10°C° 0.1 mm 3 mps 749 mmHg 84%
    20:00 +9°C° 0 mm 3 mps 749 mmHg 85%
    21:00 +9°C° 0 mm 3 mps 749 mmHg 86%
    22:00 +9°C° 0 mm 3 mps 750 mmHg 87%
    23:00 +8°C° 0 mm 3 mps 750 mmHg 88%

    30 September, Saturday

    Time Temperature Precipitation Wind Pressure Humidity
    00:00 +8°C° 0 mm 3 mps 750 mmHg 90%
    01:00 +6°C° 0 mm 4 mps 750 mmHg 91%
    02:00 +7°C° 0 mm 3 mps 750 mmHg 93%
    03:00 +5°C° 0 mm 3 mps 750 mmHg 94%
    04:00 +5°C° 0 mm 3 mps 750 mmHg 96%
    05:00 +5°C° 0 mm 3 mps 751 mmHg 96%
    06:00 +5°C° 0 mm 3 mps 751 mmHg 96%
    07:00 +5°C° 0 mm 3 mps 752 mmHg 96%
    08:00 +7°C° 0 mm 4 mps 752 mmHg 86%
    09:00 +11°C° 0 mm 4 mps 752 mmHg 77%
    10:00 +13°C° 0 mm 5 mps 753 mmHg 68%
    11:00 +13°C° 0 mm 5 mps 752 mmHg 65%
    12:00 +14°C° 0 mm 5 mps 752 mmHg 63%
    13:00 +15°C° 0 mm 4 mps 752 mmHg 60%
    14:00 +15°C° 0 mm 4 mps 752 mmHg 62%
    15:00 +15°C° 0 mm 4 mps 751 mmHg 64%
    16:00 +15°C° 0 mm 4 mps 751 mmHg 65%
    17:00 +13°C° 0.1 mm 3 mps 752 mmHg 70%
    18:00 +12°C° 0.1 mm 3 mps 752 mmHg 75%
    19:00 +10°C° 0.1 mm 3 mps 753 mmHg 79%
    20:00 +9°C° 0 mm 2 mps 754 mmHg 81%
    21:00 +8°C° 0 mm 2 mps 754 mmHg 84%
    22:00 +7°C° 0 mm 2 mps 755 mmHg 86%
    23:00 +6°C° 0 mm 2 mps 755 mmHg 88%
    Show more